Total_Precipitation_Accumulation
0.12 0.02 0.01 0.01 0.00 0.00 0.00 0.00 0.00 0.00 0.01 0.01 0.01 0.01 0.00 0.00 0.02 0.01 0.06 0.01 0.01 0.01 0.00 0.01 0.00 0.02 0.01 0.00 0.01 0.01 0.01 0.03 0.02 0.01 0.01 0.02 0.02 0.02 0.06 0.08 0.03 0.02 0.01 0.01 0.01 0.02 0.01 0.01 0.01 0.02 0.02 0.02 0.02 0.01 0.02 0.01 0.01 0.03 0.02 0.01 0.03 0.04 0.04 0.03 0.07 0.02 0.01 0.00 0.01 0.01 0.01 0.01 0.02 0.00 0.01 0.02 0.01 0.02 0.00 0.00 0.00 0.00 0.00 0.00 0.02
0.03 0.04 0.01 0.00 0.01 0.00 0.00 0.00 0.00 0.00 0.00 0.00 0.01 0.02 0.02 0.00 0.03 0.01 0.02 0.01 0.00 0.00 0.02 0.00 0.02 0.01 0.01 0.00 0.00 0.01 0.08 0.01 0.01 0.01 0.02 0.02 0.01 0.01 0.03 0.02 0.03 0.01 0.01 0.02 0.01 0.00 0.01 0.01 0.01 0.02 0.02 0.03 0.02 0.02 0.04 0.01 0.02 0.06 0.04 0.03 0.05 0.07 0.05 0.04 0.02 0.05 0.01 0.01 0.01 0.02 0.02 0.02 0.02 0.01 0.02 0.02 0.03 0.02 0.01 0.00 0.02 0.01 0.01 0.00 0.02
0.17 0.13 0.04 0.02 0.00 0.02 0.00 0.00 0.01 0.00 0.00 0.00 0.01 0.01 0.01 0.01 0.00 0.01 0.01 0.03 0.01 0.01 0.01 0.02 0.01 0.01 0.01 0.01 0.01 0.02 0.02 0.02 0.01 0.02 0.03 0.04 0.01 0.00 0.02 0.01 0.01 0.01 0.01 0.00 0.01 0.01 0.01 0.01 0.01 0.01 0.01 0.02 0.01 0.01 0.00 0.00 0.02 0.02 0.05 0.04 0.04 0.02 0.05 0.04 0.07 0.07 0.06 0.02 0.01 0.02 0.01 0.02 0.01 0.03 0.01 0.01 0.01 0.01 0.03 0.02 0.01 0.02 0.00 0.00 0.01
0.71 0.45 0.55 0.32 0.02 0.01 0.05 0.03 0.00 0.00 0.00 0.03 0.03 0.10 0.04 0.01 0.01 0.01 0.01 0.00 0.01 0.02 0.01 0.05 0.01 0.01 0.02 0.04 0.04 0.03 0.03 0.04 0.02 0.01 0.01 0.02 0.01 0.00 0.01 0.01 0.00 0.03 0.01 0.01 0.01 0.00 0.01 0.01 0.01 0.00 0.00 0.01 0.01 0.02 0.02 0.02 0.03 0.02 0.02 0.03 0.02 0.02 0.02 0.04 0.04 0.04 0.08 0.09 0.03 0.02 0.00 0.01 0.01 0.01 0.01 0.01 0.01 0.02 0.02 0.02 0.00 0.00 0.00 0.01 0.01
0.97 0.49 0.51 0.61 0.50 0.05 0.08 0.07 0.02 0.01 0.03 0.08 0.05 0.05 0.04 0.05 0.03 0.01 0.00 0.01 0.04 0.09 0.04 0.05 0.10 0.13 0.12 0.11 0.10 0.06 0.05 0.03 0.01 0.01 0.00 0.01 0.02 0.07 0.02 0.01 0.06 0.02 0.01 0.00 0.01 0.01 0.01 0.01 0.01 0.00 0.00 0.01 0.02 0.04 0.01 0.03 0.02 0.02 0.01 0.04 0.03 0.06 0.10 0.04 0.05 0.10 0.07 0.15 0.06 0.03 0.02 0.01 0.01 0.01 0.01 0.03 0.02 0.01 0.01 0.01 0.01 0.01 0.00 0.01 0.02
1.23 1.21 0.91 0.44 0.68 0.39 0.20 0.14 0.07 0.14 0.08 0.03 0.06 0.02 0.01 0.00 0.00 0.01 0.02 0.05 0.06 0.08 0.10 0.18 0.22 0.21 0.15 0.12 0.10 0.07 0.02 0.00 0.00 0.01 0.00 0.01 0.02 0.01 0.02 0.00 0.01 0.01 0.01 0.00 0.00 0.01 0.01 0.00 0.00 0.00 0.03 0.01 0.02 0.01 0.01 0.03 0.04 0.04 0.02 0.02 0.08 0.22 0.11 0.10 0.17 0.29 0.10 0.07 0.18 0.11 0.04 0.04 0.03 0.01 0.01 0.02 0.04 0.04 0.01 0.01 0.01 0.01 0.02 0.02 0.02
0.84 0.80 0.35 0.30 0.35 0.68 0.55 0.57 0.40 0.25 0.07 0.07 0.16 0.22 0.12 0.01 0.02 0.03 0.04 0.11 0.22 0.21 0.24 0.24 0.21 0.18 0.14 0.10 0.06 0.03 0.01 0.00 0.01 0.01 0.01 0.00 0.01 0.02 0.00 0.01 0.01 0.01 0.00 0.00 0.01 0.00 0.00 0.01 0.00 0.00 0.00 0.00 0.00 0.05 0.05 0.05 0.02 0.03 0.04 0.03 0.03 0.13 0.08 0.04 0.03 0.04 0.15 0.12 0.06 0.10 0.06 0.03 0.02 0.06 0.05 0.02 0.04 0.02 0.04 0.05 0.08 0.03 0.02 0.04 0.03
0.45 0.46 0.26 0.31 0.22 0.27 0.38 0.73 0.75 0.37 0.35 0.20 0.21 0.13 0.23 0.14 0.12 0.15 0.29 0.30 0.29 0.31 0.28 0.26 0.22 0.16 0.09 0.04 0.03 0.02 0.01 0.01 0.01 0.00 0.04 0.01 0.02 0.01 0.01 0.00 0.01 0.00 0.02 0.01 0.00 0.00 0.02 0.01 0.02 0.01 0.01 0.01 0.01 0.01 0.04 0.02 0.01 0.02 0.01 0.02 0.03 0.03 0.07 0.04 0.03 0.04 0.03 0.03 0.03 0.09 0.05 0.05 0.03 0.02 0.02 0.02 0.06 0.05 0.05 0.07 0.06 0.05 0.05 0.08 0.17
1.13 1.13 1.04 0.60 0.51 0.47 0.42 0.67 1.16 0.65 0.30 0.53 0.36 0.21 0.36 0.30 0.35 0.37 0.26 0.38 0.41 0.33 0.22 0.14 0.07 0.04 0.02 0.03 0.02 0.03 0.02 0.04 0.04 0.02 0.04 0.01 0.02 0.01 0.01 0.00 0.01 0.00 0.02 0.04 0.03 0.03 0.00 0.01 0.02 0.03 0.05 0.02 0.02 0.03 0.01 0.01 0.01 0.01 0.04 0.02 0.05 0.05 0.02 0.08 0.03 0.02 0.07 0.04 0.03 0.07 0.06 0.05 0.04 0.03 0.04 0.07 0.05 0.06 0.05 0.04 0.04 0.03 0.03 0.04 0.05
1.46 0.95 0.73 0.85 0.79 0.77 0.65 0.88 1.03 0.89 0.59 1.51 1.93 0.61 0.60 0.70 0.68 0.54 0.37 0.35 0.26 0.17 0.11 0.07 0.05 0.03 0.02 0.01 0.02 0.03 0.04 0.05 0.01 0.02 0.01 0.03 0.04 0.02 0.02 0.01 0.00 0.00 0.00 0.01 0.01 0.03 0.02 0.02 0.20 0.10 0.08 0.06 0.07 0.04 0.02 0.03 0.08 0.10 0.03 0.03 0.02 0.02 0.02 0.02 0.02 0.02 0.03 0.04 0.07 0.06 0.09 0.16 0.04 0.03 0.04 0.03 0.02 0.03 0.04 0.07 0.09 0.07 0.03 0.10 0.03
1.81 1.41 1.43 2.53 1.70 1.37 1.57 0.99 0.77 0.87 1.47 1.43 1.43 1.48 0.87 0.39 0.30 0.31 0.26 0.17 0.14 0.13 0.12 0.10 0.07 0.04 0.02 0.03 0.03 0.06 0.05 0.06 0.03 0.00 0.00 0.00 0.02 0.02 0.01 0.00 0.01 0.00 0.03 0.00 0.01 0.00 0.00 0.01 0.01 0.03 0.03 0.05 0.09 0.04 0.05 0.05 0.03 0.03 0.03 0.02 0.01 0.01 0.01 0.02 0.02 0.02 0.03 0.03 0.06 0.04 0.04 0.07 0.04 0.02 0.02 0.03 0.03 0.08 0.08 0.06 0.09 0.08 0.10 0.13 0.10
2.35 2.11 2.41 3.00 2.77 1.91 1.69 2.10 1.58 0.97 1.15 1.98 1.90 1.41 0.97 0.64 0.43 0.18 0.11 0.14 0.14 0.11 0.12 0.12 0.09 0.07 0.04 0.02 0.04 0.06 0.05 0.02 0.00 0.00 0.00 0.00 0.00 0.00 0.02 0.03 0.03 0.02 0.02 0.02 0.01 0.01 0.01 0.05 0.11 0.18 0.17 0.16 0.14 0.09 0.06 0.03 0.02 0.01 0.01 0.01 0.03 0.01 0.00 0.00 0.01 0.02 0.02 0.04 0.04 0.07 0.04 0.05 0.04 0.04 0.06 0.07 0.07 0.07 0.05 0.10 0.06 0.08 0.13 0.16 0.13
2.42 2.17 2.95 2.83 2.67 1.83 1.77 1.44 1.50 1.54 1.92 2.13 2.09 2.07 1.07 0.90 0.99 0.84 0.38 0.44 0.39 0.14 0.16 0.15 0.18 0.10 0.06 0.04 0.04 0.04 0.05 0.00 0.00 0.00 0.00 0.00 0.00 0.00 0.00 0.02 0.02 0.00 0.01 0.01 0.01 0.01 0.07 0.08 0.15 0.34 0.14 0.06 0.09 0.06 0.02 0.01 0.01 0.01 0.01 0.01 0.00 0.00 0.00 0.00 0.00 0.03 0.08 0.05 0.04 0.03 0.03 0.04 0.13 0.15 0.06 0.10 0.05 0.14 0.28 0.53 0.49 0.20 0.12 0.12 0.10
3.47 3.34 2.99 3.32 2.67 1.89 1.39 1.42 1.40 2.11 2.23 2.49 1.64 0.96 1.16 0.58 0.86 1.19 0.65 0.43 0.40 0.31 0.27 0.20 0.14 0.16 0.08 0.12 0.09 0.07 0.05 0.02 0.01 0.00 0.00 0.01 0.01 0.01 0.00 0.01 0.00 0.01 0.01 0.03 0.03 0.03 0.05 0.08 0.48 0.52 0.11 0.13 0.05 0.02 0.04 0.03 0.06 0.07 0.07 0.05 0.04 0.02 0.01 0.02 0.00 0.00 0.01 0.02 0.08 0.07 0.03 0.48 0.28 0.12 0.10 0.06 0.10 0.19 0.40 0.61 0.74 0.59 0.21 0.12 0.06
3.69 2.99 2.47 3.02 2.48 1.48 1.87 1.82 1.89 2.16 2.39 2.07 1.47 1.47 1.19 1.07 0.82 1.10 1.02 1.12 0.78 0.57 0.29 0.26 0.13 0.10 0.13 0.08 0.19 0.11 0.04 0.02 0.01 0.01 0.00 0.00 0.00 0.00 0.00 0.01 0.02 0.02 0.02 0.03 0.04 0.11 0.41 0.75 0.49 0.20 0.06 0.12 0.12 0.02 0.04 0.05 0.03 0.05 0.06 0.04 0.04 0.13 0.08 0.09 0.09 0.18 0.09 0.09 0.07 0.04 0.03 0.07 0.05 0.07 0.04 0.03 0.03 0.13 0.62 0.76 0.82 0.40 0.25 0.20 0.07
1.69 1.74 2.70 2.73 1.90 1.58 1.50 1.57 1.88 2.76 2.46 1.70 1.22 1.38 1.16 1.13 1.33 1.53 1.45 1.12 0.80 0.37 0.24 0.22 0.15 0.26 0.25 0.25 0.20 0.11 0.05 0.03 0.01 0.01 0.01 0.02 0.01 0.02 0.02 0.01 0.02 0.01 0.02 0.06 0.06 0.12 0.24 0.52 0.37 0.26 0.22 0.18 0.05 0.07 0.18 0.37 0.29 0.26 0.05 0.05 0.06 0.03 0.05 0.15 0.04 0.03 0.02 0.02 0.02 0.02 0.03 0.02 0.01 0.01 0.03 0.02 0.04 0.44 1.04 0.83 0.37 0.31 0.59 0.54 0.35
0.53 0.80 1.21 1.45 1.53 1.45 1.58 2.15 1.65 1.48 2.02 2.19 1.98 1.68 2.10 2.25 1.77 2.06 1.42 0.55 0.32 0.38 0.23 0.22 0.13 0.63 0.48 0.38 0.18 0.06 0.05 0.06 0.06 0.04 0.04 0.03 0.02 0.02 0.03 0.02 0.05 0.04 0.06 0.08 0.18 0.41 0.35 0.41 0.53 0.47 0.34 0.10 0.08 0.14 0.21 0.12 0.04 0.04 0.12 0.10 0.06 0.10 0.10 0.13 0.06 0.02 0.02 0.00 0.00 0.00 0.00 0.00 0.00 0.00 0.01 0.00 0.26 0.96 1.68 1.09 0.10 0.68 0.81 1.06 0.53
0.96 1.19 1.38 0.95 1.84 1.26 1.67 1.33 1.81 1.83 1.93 2.00 1.92 2.02 2.17 2.25 2.38 2.33 1.45 1.23 1.03 1.21 1.11 0.37 0.34 1.06 1.24 0.53 0.29 0.17 0.11 0.07 0.20 0.29 0.34 0.02 0.03 0.05 0.05 0.05 0.12 0.11 0.13 0.42 0.69 0.66 0.24 0.28 0.10 0.13 0.24 0.14 0.03 0.12 0.03 0.22 0.26 0.05 0.05 0.07 0.02 0.07 0.06 0.08 0.14 0.08 0.01 0.00 0.00 0.00 0.00 0.00 0.01 0.01 0.02 0.02 1.57 1.75 1.48 0.43 0.20 0.75 1.29 1.03 0.63
0.19 0.51 0.21 0.17 0.38 0.45 0.72 0.79 0.96 1.87 2.31 1.71 2.10 2.53 2.42 2.07 1.87 1.69 1.48 1.20 1.24 1.18 1.12 1.39 2.28 2.00 1.95 1.70 0.44 0.28 0.28 0.41 0.38 0.39 0.71 0.84 0.98 0.87 0.30 0.19 0.21 0.32 0.34 0.60 0.93 0.33 0.37 0.13 0.14 0.17 0.12 0.07 0.10 0.17 0.06 0.04 0.01 0.03 0.10 0.06 0.06 0.10 0.12 0.12 0.09 0.09 0.11 0.06 0.03 0.03 0.02 0.02 0.07 0.05 0.04 0.01 0.01 0.55 0.82 0.78 0.70 1.53 1.67 1.00 0.72
0.15 0.21 0.20 0.06 0.11 0.19 0.37 0.31 0.31 0.98 0.57 0.84 2.57 2.57 3.25 2.92 1.98 1.74 1.59 1.94 1.67 1.80 1.96 1.71 1.44 1.70 1.48 0.70 0.52 0.44 0.44 0.54 0.80 0.28 0.63 1.01 0.47 0.59 0.65 0.24 0.27 0.30 0.27 0.32 0.74 0.38 0.21 0.18 0.06 0.03 0.01 0.01 0.01 0.01 0.01 0.03 0.00 0.00 0.02 0.04 0.15 0.12 0.04 0.03 0.02 0.20 0.05 0.02 0.03 0.02 0.02 0.05 0.11 0.09 0.04 0.02 0.01 0.02 0.04 0.55 1.19 1.62 1.39 1.29 0.66
0.16 0.46 0.51 0.05 0.08 0.19 0.14 0.22 0.27 0.19 0.17 0.40 0.47 0.61 1.21 1.49 2.24 1.94 1.90 1.84 1.88 1.53 1.53 1.89 1.74 1.54 1.49 1.20 1.33 1.23 1.27 1.20 0.95 0.68 0.56 0.47 0.60 0.89 0.85 0.60 0.20 0.19 0.44 0.32 0.29 0.68 0.38 0.38 0.11 0.01 0.01 0.01 0.01 0.01 0.01 0.01 0.01 0.01 0.03 0.02 0.03 0.42 0.78 0.72 0.56 0.56 0.15 0.03 0.01 0.03 0.06 0.06 0.03 0.03 0.04 0.06 0.14 0.31 0.19 0.13 0.90 1.29 1.35 1.11 0.76
0.02 0.10 0.38 0.40 0.43 0.48 0.85 0.61 0.44 0.38 0.57 0.72 0.51 0.14 0.10 0.42 1.16 1.00 1.47 2.01 2.33 1.94 1.64 1.32 1.75 1.92 1.90 1.93 1.90 1.35 1.34 1.11 1.69 0.82 0.47 0.87 0.79 0.60 0.59 0.21 0.25 0.13 0.50 0.65 0.86 0.55 0.33 0.48 0.24 0.05 0.01 0.01 0.01 0.02 0.02 0.01 0.01 0.04 0.02 0.02 0.05 1.23 2.63 2.43 1.49 0.80 0.26 0.08 0.07 0.04 0.02 0.01 0.03 0.04 0.00 0.02 0.01 0.01 0.05 0.40 0.75 1.30 1.38 1.15 0.76
0.00 0.04 0.13 0.31 0.25 0.09 0.25 0.42 1.23 2.29 1.91 0.38 0.15 0.12 0.05 0.08 0.33 0.82 1.10 1.68 2.03 1.58 1.23 1.15 1.15 1.87 2.52 2.14 1.68 1.67 1.87 1.67 1.24 1.80 0.66 0.21 0.15 0.20 0.12 0.17 0.30 0.54 0.82 1.65 1.13 0.70 0.35 0.59 0.22 0.02 0.02 0.01 0.02 0.02 0.01 0.01 0.01 0.01 0.01 0.01 0.03 1.28 2.73 4.02 3.53 2.36 0.83 0.25 0.07 0.04 0.02 0.00 0.00 0.00 0.00 0.03 0.02 0.01 0.04 0.34 0.59 1.08 1.00 0.69 0.35
0.00 0.00 0.02 0.05 0.04 0.16 0.19 0.81 1.84 2.11 0.76 0.43 0.23 0.22 0.28 0.11 0.32 1.06 0.35 0.28 0.92 1.24 1.34 1.20 1.13 1.12 1.30 2.13 2.32 2.17 2.52 2.10 1.92 1.79 1.00 0.48 0.29 0.32 0.42 0.27 0.34 0.85 0.45 0.25 0.65 0.57 0.35 0.32 0.08 0.05 0.03 0.03 0.03 0.02 0.01 0.01 0.02 0.02 0.02 0.02 0.09 1.26 3.14 3.33 5.63 4.72 2.19 0.47 0.09 0.04 0.02 0.00 0.00 0.00 0.00 0.00 0.00 0.01 0.07 0.46 0.67 1.00 0.60 0.57 0.49
0.00 0.03 0.00 0.01 0.02 0.02 0.01 0.20 1.61 1.22 0.49 0.42 0.36 0.24 0.31 0.60 0.71 0.75 0.15 0.15 0.20 0.16 0.25 0.63 0.74 0.57 0.59 0.85 1.82 3.04 2.45 1.80 1.39 1.36 1.01 0.42 0.34 0.30 0.26 0.16 0.10 0.13 0.43 0.14 0.13 0.22 0.34 0.06 0.03 0.04 0.05 0.04 0.02 0.03 0.03 0.03 0.19 0.09 0.02 0.03 0.10 0.38 2.10 2.79 2.81 4.58 1.76 0.16 0.07 0.03 0.01 0.04 0.00 0.01 0.01 0.01 0.03 0.05 0.32 0.52 0.86 0.67 0.44 0.47 0.32
0.01 0.02 0.02 0.00 0.00 0.00 0.02 0.04 0.08 0.30 0.07 0.20 0.20 0.27 0.41 0.48 0.53 0.60 0.27 0.15 0.14 0.09 0.07 0.11 0.26 0.74 1.12 1.13 0.90 0.81 0.98 1.28 1.22 1.35 2.06 0.88 0.60 0.31 0.17 0.14 0.19 0.19 0.36 0.23 0.10 0.15 0.04 0.02 0.02 0.04 0.05 0.05 0.10 0.05 0.03 0.03 0.02 0.02 0.02 0.05 0.13 0.63 1.95 2.33 1.74 2.47 1.63 0.16 0.07 0.06 0.23 0.79 0.05 0.03 0.02 0.05 0.12 0.35 0.68 0.74 0.62 0.39 0.31 0.16 0.08
0.01 0.02 0.02 0.01 0.05 0.01 0.02 0.01 0.02 0.00 0.00 0.00 0.03 0.23 0.56 0.38 0.42 0.65 0.99 0.48 0.52 0.66 0.69 0.91 0.71 0.33 0.33 0.40 0.84 0.84 1.03 0.71 0.61 0.85 1.34 0.99 0.90 0.59 0.28 0.52 0.58 0.79 0.55 0.55 0.60 0.68 0.15 0.17 0.20 0.09 0.07 0.05 0.04 0.02 0.01 0.02 0.05 0.03 0.14 0.16 0.16 0.30 0.46 0.77 0.74 1.73 0.63 0.19 0.09 0.10 0.79 0.62 0.42 0.08 0.07 0.27 0.60 0.88 0.89 0.48 0.13 0.07 0.04 0.10 0.13
0.40 0.43 0.55 0.62 0.70 0.77 1.02 0.84 0.19 0.00 0.00 0.01 0.05 0.07 0.43 0.76 0.74 0.59 0.36 0.34 0.34 0.23 0.29 0.26 0.24 0.22 0.31 0.78 1.46 1.60 0.82 0.39 0.56 0.64 0.62 0.83 0.76 0.81 0.61 0.50 0.56 0.77 0.52 0.31 0.37 0.44 0.93 0.72 0.41 0.77 0.64 0.19 0.10 0.05 0.05 0.06 0.10 0.05 0.07 0.06 0.12 0.09 0.09 0.08 0.67 0.96 0.30 0.19 0.12 0.51 0.90 0.81 0.38 0.12 0.34 0.74 0.56 0.29 0.11 0.05 0.08 0.06 0.12 0.27 0.42
1.02 0.98 0.76 0.83 0.63 0.68 0.49 0.16 0.10 0.35 0.36 0.93 1.08 1.03 0.40 0.30 0.37 0.45 0.29 0.20 0.18 0.24 0.23 0.34 0.36 0.50 0.98 1.18 1.33 0.35 0.17 0.24 0.44 0.35 0.64 0.75 0.88 0.80 0.49 0.53 0.40 0.37 0.61 0.66 0.54 0.67 1.69 1.18 0.96 0.76 0.62 0.12 0.16 0.16 0.08 0.04 0.02 0.02 0.04 0.06 0.04 0.08 0.11 0.25 0.20 0.30 0.20 0.68 0.39 0.68 0.63 0.18 0.27 0.42 0.82 0.85 0.26 0.08 0.06 0.11 0.18 0.59 0.35 0.46 0.32
0.41 0.40 0.40 0.38 0.21 0.32 0.12 0.08 0.08 0.08 0.32 0.55 0.63 0.24 0.02 0.03 0.08 0.10 0.13 0.10 0.09 0.07 0.04 0.16 0.28 0.35 0.48 0.20 0.20 0.20 0.25 0.57 0.51 0.34 0.23 0.43 0.49 0.66 0.62 0.71 0.58 0.79 0.81 1.36 1.70 2.70 1.65 0.77 0.59 0.41 0.11 0.22 0.26 0.06 0.05 0.05 0.10 0.09 0.11 0.06 0.10 0.24 0.21 0.14 0.13 0.09 0.22 0.41 0.57 1.00 1.02 0.98 0.76 0.70 0.36 0.29 0.12 0.15 0.14 0.19 0.28 0.45 0.56 0.55 0.33
0.57 0.53 0.47 0.31 0.18 0.21 0.14 0.11 0.09 0.08 0.09 0.03 0.12 0.15 0.08 0.04 0.05 0.06 0.09 0.10 0.20 0.49 0.76 0.84 0.78 0.75 0.73 0.84 0.66 0.59 0.45 0.83 0.58 0.22 0.37 0.55 0.38 0.46 0.73 0.74 1.54 1.10 2.23 3.77 2.28 1.18 0.67 0.55 0.30 0.35 0.40 0.50 0.29 0.08 0.10 0.13 0.12 0.16 0.20 0.12 0.15 0.16 0.11 0.12 0.13 0.24 0.38 0.38 0.90 1.22 1.13 0.78 0.58 0.44 0.53 0.55 0.29 0.26 0.48 0.31 0.31 0.26 0.40 0.39 0.37
1.31 1.21 1.36 1.36 0.97 0.91 1.13 1.06 1.00 0.62 1.01 1.28 1.13 1.22 1.07 0.88 0.44 0.34 0.67 0.75 0.46 0.35 0.39 0.57 0.46 0.64 0.57 0.59 0.77 1.34 1.18 1.39 1.58 1.38 1.57 1.22 1.02 0.57 0.25 0.84 2.06 2.15 2.40 2.25 1.46 0.79 0.61 0.46 0.37 0.53 0.54 0.48 0.42 0.21 0.20 0.60 0.45 0.54 0.26 0.15 0.19 0.12 0.10 0.25 0.45 0.86 0.64 0.33 1.04 0.94 0.62 0.38 0.56 0.87 1.32 1.35 1.15 1.01 0.77 0.41 0.54 0.49 0.33 0.47 0.49
0.68 0.73 1.07 1.09 1.52 1.44 1.10 1.12 1.37 1.88 1.74 1.41 1.54 1.38 0.73 0.52 0.42 0.58 1.02 0.85 0.99 0.95 0.79 0.90 0.97 1.13 1.42 0.85 0.80 1.05 0.91 0.59 0.47 0.24 0.23 0.10 0.09 0.12 0.27 1.11 1.93 2.28 2.45 2.30 0.92 0.83 1.14 1.15 1.21 0.73 0.75 0.57 0.76 0.86 0.59 0.42 0.30 0.34 0.16 0.21 0.13 0.25 0.30 0.39 1.21 0.74 0.26 0.50 0.35 0.33 0.54 0.79 1.36 1.53 1.51 1.02 0.81 0.64 0.51 0.28 0.27 0.34 0.29 0.54 0.54
0.93 0.99 1.21 0.93 1.28 1.93 2.30 2.23 2.02 1.56 1.06 1.77 1.59 1.04 1.18 1.20 0.80 0.52 0.47 0.72 0.95 0.74 0.60 1.01 0.95 1.15 1.37 1.00 0.66 1.24 0.87 0.65 0.69 1.13 2.12 2.18 2.17 2.01 1.71 1.80 2.57 4.04 4.02 3.68 3.25 2.94 2.69 2.23 2.12 1.52 1.43 1.19 1.40 1.61 0.95 0.43 0.13 0.15 0.16 0.32 0.12 0.19 0.22 1.05 0.99 0.65 0.35 0.34 0.34 0.59 1.00 1.13 1.35 1.47 1.31 1.06 1.00 0.82 0.70 0.54 0.32 0.68 0.56 0.33 0.45
1.08 1.05 0.81 0.98 1.62 1.61 1.37 1.53 1.86 2.96 3.12 2.28 1.70 1.74 1.45 1.22 2.05 2.13 0.85 0.51 0.92 1.30 1.31 0.76 0.72 0.38 0.52 0.65 0.97 1.18 0.78 0.41 0.24 0.17 0.26 0.31 0.47 0.53 0.97 1.60 1.78 1.44 2.19 2.38 2.82 2.69 2.07 1.99 1.78 1.69 1.45 0.65 0.40 0.28 0.31 0.67 0.82 0.69 0.41 0.43 0.38 0.46 0.66 0.66 0.88 1.28 0.98 1.06 0.92 1.04 1.23 1.12 1.20 0.91 0.80 0.78 0.93 0.91 0.66 0.67 0.74 0.64 0.66 0.50 0.45
0.98 1.08 1.31 1.29 1.37 1.56 1.45 1.99 2.17 2.26 2.65 2.08 1.85 2.74 2.81 2.35 1.75 1.50 1.59 1.62 2.27 1.76 1.65 1.52 1.61 1.54 1.56 1.45 1.28 1.15 1.55 1.71 1.25 0.56 1.16 1.36 1.08 1.43 2.51 3.36 3.35 3.50 2.42 1.59 1.38 1.06 0.51 0.46 0.40 0.47 0.45 0.78 0.81 1.06 1.21 1.26 0.87 0.76 0.54 0.66 0.70 0.58 0.95 1.22 1.54 1.57 0.68 0.70 0.80 0.87 0.94 0.95 0.75 0.86 0.98 0.90 1.06 0.96 0.87 0.64 0.65 0.82 1.05 0.90 0.84
0.59 0.75 1.05 1.40 1.45 1.29 1.69 2.00 1.79 1.93 1.63 1.96 2.18 3.04 2.94 2.92 2.61 2.03 2.05 1.67 1.87 1.55 1.18 1.10 1.17 1.40 1.27 1.28 0.72 0.75 0.87 1.24 2.14 1.98 2.04 1.88 1.60 2.97 2.62 0.90 0.88 1.36 0.88 0.91 0.80 0.72 0.41 0.36 0.39 0.50 0.54 1.29 1.54 1.31 1.19 1.47 1.39 1.26 1.10 1.27 1.01 1.61 3.13 1.41 1.78 1.58 1.06 0.85 0.75 0.88 1.05 0.91 1.09 1.33 1.21 1.43 1.51 1.27 0.81 0.90 0.81 0.87 0.94 0.71 0.69
0.73 0.82 0.76 0.39 0.79 0.89 0.92 1.51 2.10 1.37 1.72 1.41 1.51 1.60 1.37 1.20 1.06 1.74 1.70 1.60 1.85 2.06 1.30 1.09 1.59 1.91 1.33 1.17 1.40 1.34 0.84 0.84 2.24 3.91 3.20 2.30 1.82 1.98 1.97 1.73 1.12 0.65 0.53 0.57 0.40 0.26 0.33 0.44 0.35 0.60 0.65 1.50 1.43 1.23 1.14 1.17 1.33 1.62 1.76 1.98 3.27 5.73 2.26 1.61 1.90 2.36 1.39 1.14 1.03 1.43 1.35 1.34 1.22 1.49 1.92 2.39 1.44 1.10 1.02 1.27 1.40 1.29 1.23 0.97 1.05
0.60 0.76 0.90 0.89 1.09 1.10 1.00 1.38 1.55 2.04 1.96 1.99 1.76 1.77 1.28 1.07 1.20 1.31 1.20 1.23 1.83 2.43 2.80 2.42 1.92 1.59 1.58 1.31 1.00 2.00 1.98 1.96 1.50 0.82 0.90 1.08 1.01 1.02 1.23 1.39 1.27 1.17 1.09 0.99 0.94 1.01 1.26 1.37 1.07 1.36 1.40 1.64 1.66 2.11 1.60 1.56 1.61 2.32 2.43 2.69 4.43 4.31 1.94 1.52 1.32 1.95 1.28 1.12 1.45 1.67 1.17 1.03 0.98 1.36 1.84 1.92 1.46 1.43 1.59 1.54 1.37 1.32 1.22 1.21 1.30
0.87 1.44 1.69 0.86 0.89 1.55 1.46 1.67 1.20 1.96 2.22 1.10 0.74 0.61 0.75 1.18 1.50 1.84 2.20 2.39 1.92 1.71 1.55 1.75 2.57 3.01 2.62 2.52 2.45 1.90 1.54 2.24 2.19 2.58 1.86 0.84 0.66 0.92 0.82 0.79 1.19 1.06 2.16 1.19 1.48 1.49 1.11 1.17 1.55 1.50 1.40 2.48 2.02 1.83 1.87 1.70 1.45 1.50 2.21 2.67 5.11 3.06 1.47 1.91 1.96 2.33 2.30 1.34 1.07 0.85 0.65 0.67 0.99 1.94 2.59 2.83 2.65 1.89 1.43 1.52 1.59 1.43 1.47 1.34 1.77
1.61 1.70 0.95 0.61 0.66 0.96 1.32 1.59 1.13 0.48 0.43 0.34 0.24 0.19 0.27 0.24 0.37 0.41 1.21 1.78 1.87 1.92 1.92 1.94 1.45 1.37 1.44 1.73 1.98 2.29 3.24 2.97 2.49 1.65 1.89 2.39 1.55 1.15 1.03 1.16 0.97 2.71 1.51 1.27 1.25 1.63 1.35 1.13 1.18 1.28 1.32 2.44 3.28 2.85 2.18 1.65 1.58 1.68 2.45 3.58 4.93 2.69 1.82 1.73 1.23 0.94 0.85 0.91 1.23 1.35 1.42 1.46 2.08 2.53 1.99 2.22 2.79 2.69 2.49 2.20 1.85 1.82 2.69 3.51 3.75
2.61 2.02 1.53 1.10 1.08 1.26 1.64 1.25 0.59 0.42 0.46 0.55 0.69 0.41 0.26 0.40 0.57 0.33 0.26 0.32 0.36 0.39 0.68 0.71 0.80 0.95 1.00 1.13 1.30 1.57 3.89 2.34 2.63 2.13 1.44 1.57 2.07 2.11 1.93 1.24 1.06 1.10 1.59 1.90 1.58 1.29 1.15 1.54 1.43 1.17 1.23 2.45 3.15 3.10 2.18 1.15 1.12 1.56 1.92 3.06 4.13 2.63 1.78 1.26 1.36 2.02 2.03 1.57 1.09 1.31 1.66 1.90 1.96 2.79 3.92 2.68 2.34 2.44 2.41 3.11 3.51 3.61 3.12 3.01 2.81
1.66 2.38 2.49 2.59 2.74 2.89 1.80 2.21 1.81 2.31 1.16 1.17 1.19 0.63 0.61 1.54 1.66 2.04 1.60 1.37 1.09 0.49 0.33 0.40 0.53 0.67 0.69 0.66 0.66 0.77 0.98 1.19 1.44 1.59 1.63 1.50 1.76 2.12 2.46 2.12 1.24 1.14 1.42 1.49 1.23 1.21 1.00 0.99 1.28 1.21 1.32 1.28 1.71 3.05 3.89 2.78 1.69 1.44 2.04 4.06 3.09 1.64 1.87 1.86 1.71 1.35 1.74 2.32 2.47 2.44 2.24 2.08 2.19 2.70 3.26 4.22 3.53 2.43 2.86 3.50 3.13 2.69 3.18 3.10 3.06
0.61 1.77 2.31 1.75 1.65 2.03 2.75 3.21 3.14 2.63 1.48 1.51 1.34 1.99 2.51 1.90 1.18 1.12 1.60 1.44 1.00 1.11 0.80 0.42 0.68 0.29 0.38 0.38 0.39 0.44 0.57 0.75 0.93 1.18 1.34 1.22 1.31 1.43 1.55 2.07 1.98 1.71 1.79 2.35 2.24 2.29 2.40 1.78 1.23 1.68 1.89 1.69 1.80 2.71 2.95 2.96 4.34 4.01 2.47 2.19 2.43 2.44 1.71 1.94 2.42 2.14 2.36 2.27 1.81 2.51 3.06 3.50 3.35 2.94 2.61 2.57 2.70 3.70 2.79 2.38 2.26 2.24 1.65 1.76 1.95
1.33 1.32 1.72 1.69 1.51 1.46 2.08 2.12 1.17 1.65 1.78 1.32 1.28 1.24 1.92 2.55 2.12 1.07 0.67 0.30 0.19 0.13 0.12 0.19 0.17 0.38 0.12 0.15 0.21 0.28 0.62 1.31 1.74 1.62 1.79 1.05 1.11 1.11 1.18 1.32 1.32 1.13 1.04 1.01 1.06 1.10 1.33 1.93 2.06 1.77 1.84 2.11 2.30 2.54 3.72 2.97 2.60 3.16 3.62 3.19 2.76 3.36 3.62 3.29 2.73 2.18 2.66 3.17 3.24 2.86 2.84 3.56 2.84 2.35 1.92 1.65 1.82 2.10 2.01 1.63 1.99 1.55 1.42 1.46 1.17
0.80 1.09 1.46 1.39 1.63 1.56 1.82 2.57 2.49 2.56 2.32 2.61 2.92 2.67 2.73 2.63 2.32 2.31 1.94 2.18 1.15 0.48 0.36 0.32 0.38 0.45 0.48 0.27 0.22 0.26 0.48 1.44 1.47 0.73 0.67 0.61 0.63 0.78 0.87 0.86 0.92 1.12 1.41 1.66 1.45 1.09 1.30 1.45 1.30 1.20 1.01 1.32 1.39 1.93 2.60 3.46 2.16 2.70 2.76 2.72 2.89 3.03 2.98 2.50 2.67 3.29 3.20 3.14 4.09 3.14 2.08 1.22 1.21 1.35 1.30 1.32 1.37 1.54 1.72 1.67 1.42 1.48 1.74 1.67 1.37
0.90 0.83 0.60 0.57 0.70 0.69 0.96 1.53 2.08 1.44 1.88 2.57 2.16 1.34 1.09 1.45 0.96 1.47 1.78 1.73 1.39 0.91 0.72 1.00 0.93 1.08 1.16 1.01 0.90 0.84 1.06 1.33 1.64 1.14 0.48 0.53 0.56 0.74 0.88 0.70 0.64 0.59 0.64 0.75 0.78 0.92 1.30 1.85 1.48 1.41 1.29 1.62 1.60 1.86 1.84 2.76 3.73 2.60 2.31 1.97 1.82 1.65 1.63 1.33 1.26 1.44 1.86 2.02 2.41 2.72 2.30 1.67 1.61 1.47 1.48 1.62 1.73 1.69 1.60 1.97 1.75 1.95 1.72 1.56 1.41
0.87 0.63 0.66 0.83 0.88 0.99 0.90 1.17 1.51 1.33 1.34 1.48 2.01 2.95 3.27 2.46 2.59 2.43 2.29 2.01 1.69 1.90 2.21 2.48 2.52 2.52 2.04 2.19 1.71 1.71 1.76 1.52 1.93 2.35 1.36 1.27 1.16 1.43 1.35 1.12 0.70 0.55 0.56 0.66 0.88 0.90 0.95 1.01 1.48 1.77 1.44 1.08 1.50 1.36 1.13 1.22 2.15 2.48 2.26 1.49 1.57 1.59 1.77 2.25 2.34 2.62 2.35 1.90 1.25 1.27 1.30 1.58 1.44 1.21 1.24 1.36 1.48 1.33 1.52 1.48 1.25 1.41 1.59 1.54 1.48
0.75 0.82 0.66 0.61 0.79 1.07 1.30 1.32 1.83 1.51 1.45 1.43 1.26 1.41 1.49 1.56 1.30 1.04 1.22 1.85 1.94 1.77 1.62 2.13 3.00 2.81 2.91 2.52 2.18 1.94 1.73 1.40 1.90 2.34 2.45 1.45 1.70 1.63 1.48 1.13 0.71 0.79 1.09 1.08 1.20 1.23 1.63 2.07 2.15 1.58 0.98 0.99 0.81 0.94 1.79 0.98 0.78 0.98 1.70 1.49 1.00 0.71 0.64 0.63 0.69 0.77 0.93 1.10 0.98 0.81 0.82 0.99 0.88 1.42 1.33 1.27 1.36 1.24 1.69 1.35 1.58 1.56 0.98 1.38 1.19
0.83 1.09 1.02 1.38 1.80 1.06 0.86 0.73 0.74 1.22 1.85 1.95 1.84 1.75 1.74 1.95 2.23 2.03 1.67 1.32 1.42 2.30 1.88 1.87 1.70 1.31 1.19 1.29 1.36 1.29 1.31 1.26 1.32 1.86 2.82 2.59 1.75 1.12 1.00 1.26 1.09 1.20 1.52 1.36 1.58 1.22 1.27 1.04 1.19 1.64 1.64 1.06 1.01 0.85 0.70 0.90 0.60 0.51 0.67 0.94 1.20 1.00 0.64 0.54 0.55 0.60 0.86 0.69 0.77 0.69 0.58 0.66 0.59 0.71 0.83 0.73 0.70 0.81 0.83 0.60 0.61 0.71 1.07 0.95 0.77
0.40 0.39 0.43 0.54 0.69 0.81 0.67 0.77 0.91 0.99 0.95 0.93 1.15 1.48 1.47 1.46 2.35 3.06 2.19 2.09 1.57 1.22 1.28 1.14 1.01 0.99 0.86 0.91 1.06 1.09 1.07 1.03 1.25 0.96 1.57 2.18 2.09 1.44 0.97 1.02 0.97 0.69 1.05 1.36 1.33 1.42 1.39 1.31 1.12 1.22 1.01 1.11 1.08 0.75 0.80 0.93 0.93 0.78 0.60 0.67 0.60 0.43 0.36 0.30 0.26 0.20 0.36 0.47 0.62 0.62 0.55 0.58 0.60 0.56 0.65 0.55 0.50 0.45 0.43 0.46 0.62 0.55 0.69 0.53 0.59